EW5822 Weather Reports


Display with metric or nautical units.
time (UTC)temp
F
wind
direction
speed
MPH
gust
MPH
rain 1hr
in
rain 24hr
in
rain mn
in
humidity
%
barometer
mb
20260507101116 43 191 4.0 7.0 0.00 0.00 0.00 85 1014.7
20260507100003 44 204 2.0 4.0 0.00 0.00 0.00 85 1014.8
20260507095403 44 205 2.0 3.0 0.00 0.00 0.00 85 1014.9
20260507094712 44 205 3.0 5.0 0.00 0.00 0.00 85 1014.8
20260507093603 44 203 4.0 6.0 0.00 0.00 0.00 84 1014.8
20260507092917 44 202 5.0 7.0 0.00 0.00 0.00 83 1014.8
20260507092014 44 197 4.0 6.0 0.00 0.00 0.00 83 1014.9
20260507091117 44 196 5.0 8.0 0.00 0.00 0.00 83 1014.9
20260507090004 45 200 5.0 7.0 0.00 0.00 0.00 82 1015.0
20260507085403 45 208 4.0 7.0 0.00 0.00 0.00 81 1014.9
20260507084713 45 208 5.0 9.0 0.00 0.00 0.00 81 1015.0
20260507083815 46 212 5.0 9.0 0.00 0.00 0.00 81 1015.1
20260507082912 46 214 5.0 9.0 0.00 0.00 0.00 81 1015.2
20260507082015 46 216 4.0 8.0 0.00 0.00 0.00 80 1015.2
20260507081112 47 224 4.0 7.0 0.00 0.00 0.00 80 1015.3
20260507080215 47 225 5.0 10.0 0.00 0.00 0.00 80 1015.4
20260507075616 47 223 5.0 10.0 0.00 0.00 0.00 80 1015.5
20260507074503 47 220 5.0 10.0 0.00 0.00 0.00 79 1015.5
20260507073816 47 215 5.0 10.0 0.00 0.00 0.00 79 1015.6
20260507072703 47 215 6.0 10.0 0.00 0.00 0.00 79 1015.8
20260507072015 47 211 6.0 10.0 0.00 0.00 0.00 79 1015.8
20260507070903 46 198 5.0 7.0 0.00 0.00 0.00 79 1016.0
20260507070007 46 202 5.0 9.0 0.00 0.00 0.00 78 1016.1
20260507065617 46 209 5.0 9.0 0.00 0.00 0.00 78 1016.1
20260507064714 46 214 5.0 9.0 0.00 0.00 0.00 79 1016.1
20260507063816 46 207 6.0 9.0 0.00 0.00 0.00 77 1016.2
20260507062914 46 205 5.0 9.0 0.00 0.00 0.00 76 1016.2
20260507061803 47 205 4.0 6.0 0.00 0.00 0.00 75 1016.3
20260507060903 47 205 4.0 6.0 0.00 0.00 0.00 74 1016.4
20260507060004 47 205 4.0 5.0 0.00 0.00 0.00 74 1016.4
20260507055612 48 205 4.0 6.0 0.00 0.00 0.00 73 1016.4
20260507054503 48 208 5.0 7.0 0.00 0.00 0.00 72 1016.5
20260507053603 49 213 4.0 7.0 0.00 0.00 0.00 70 1016.4
20260507052703 50 216 4.0 7.0 0.00 0.00 0.00 69 1016.5
20260507051803 50 219 5.0 8.0 0.00 0.00 0.00 69 1016.5
20260507051114 51 223 4.0 8.0 0.00 0.00 0.00 68 1016.6
20260507050003 51 215 5.0 11.0 0.00 0.00 0.00 68 1016.6
20260507045613 51 214 5.0 10.0 0.00 0.00 0.00 68 1016.6
20260507044715 50 213 5.0 8.0 0.00 0.00 0.00 68 1016.6
20260507043818 50 205 6.0 9.0 0.00 0.00 0.00 67 1016.6
20260507042915 51 200 6.0 9.0 0.00 0.00 0.00 66 1016.5
20260507042012 52 197 6.0 8.0 0.00 0.00 0.00 64 1016.5
20260507041115 53 213 6.0 9.0 0.00 0.00 0.00 62 1016.5
20260507040003 53 216 6.0 11.0 0.00 0.00 0.00 61 1016.5
20260507035614 53 216 6.0 10.0 0.00 0.00 0.00 61 1016.5
20260507034716 54 216 6.0 12.0 0.00 0.00 0.00 60 1016.6
20260507033813 54 215 6.0 12.0 0.00 0.00 0.00 60 1016.6
20260507032703 54 218 5.0 9.0 0.00 0.01 0.00 60 1016.6
20260507032013 54 216 5.0 9.0 0.00 0.01 0.00 60 1016.5
20260507031115 53 212 6.0 9.0 0.00 0.01 0.00 60 1016.5
20260507030003 53 206 6.0 8.0 0.00 0.01 0.00 61 1016.5
20260507025614 53 205 6.0 9.0 0.00 0.01 0.00 61 1016.5
20260507024717 53 201 6.0 9.0 0.00 0.01 0.00 60 1016.5
20260507023603 53 192 6.0 8.0 0.00 0.01 0.00 58 1016.5
20260507022703 53 192 5.0 7.0 0.00 0.01 0.00 56 1016.4
20260507021803 54 192 6.0 7.0 0.00 0.01 0.00 55 1016.2
20260507020903 53 196 5.0 8.0 0.00 0.01 0.00 55 1016.1
20260507020213 53 199 6.0 8.0 0.00 0.01 0.00 54 1016.0
20260507015403 54 197 5.0 7.0 0.00 0.01 0.00 53 1015.8
20260507014503 53 202 5.0 8.0 0.00 0.01 0.00 53 1015.8
20260507013603 54 206 5.0 6.0 0.00 0.01 0.00 52 1015.7
20260507012703 55 207 5.0 7.0 0.00 0.01 0.00 51 1015.7
20260507012014 56 204 6.0 8.0 0.00 0.01 0.00 50 1015.7
20260507010003 57 206 8.0 10.0 0.00 0.01 0.00 47 1015.7
20260507005616 58 209 8.0 12.0 0.00 0.01 0.00 47 1015.7
20260507004503 58 218 4.0 8.0 0.00 0.01 0.00 43 1015.6
20260507003815 59 216 4.0 7.0 0.00 0.01 0.00 41 1015.6
20260507002912 59 206 5.0 8.0 0.00 0.01 0.00 41 1015.6
20260507002015 60 198 6.0 9.0 0.00 0.01 0.00 40 1015.7
20260507001112 60 195 4.0 8.0 0.00 0.01 0.00 40 1015.7
20260507000004 60 213 6.0 9.0 0.00 0.01 0.00 39 1015.8
20260506235403 61 222 5.0 12.0 0.00 0.01 0.00 38 1015.8
20260506234503 62 225 6.0 10.0 0.00 0.01 0.00 37 1015.9
20260506233816 62 217 5.0 12.0 0.00 0.01 0.00 37 1015.8
20260506232913 62 241 8.0 12.0 0.00 0.01 0.00 37 1015.7
20260506232015 62 226 6.0 12.0 0.00 0.01 0.00 36 1015.8
20260506230903 63 226 6.0 13.0 0.00 0.01 0.00 35 1015.8
20260506230215 63 204 7.0 13.0 0.00 0.01 0.00 34 1015.8
20260506225403 63 192 5.0 10.0 0.00 0.01 0.00 36 1015.8
20260506224714 63 198 2.0 10.0 0.00 0.01 0.00 35 1015.8
20260506223603 62 213 5.0 12.0 0.00 0.01 0.00 34 1015.9
20260506222914 63 240 5.0 10.0 0.00 0.01 0.00 36 1015.9
20260506222016 63 221 7.0 12.0 0.00 0.01 0.00 36 1016.0
20260506220903 63 210 8.0 15.0 0.00 0.01 0.00 37 1016.0
20260506220216 62 210 7.0 11.0 0.00 0.01 0.00 35 1016.1
20260506215403 62 225 4.0 11.0 0.00 0.01 0.00 36 1016.2
20260506214503 61 132 2.0 7.0 0.00 0.01 0.00 36 1016.2
20260506213603 61 178 3.0 9.0 0.00 0.01 0.00 36 1016.3
20260506212703 60 261 5.0 9.0 0.00 0.01 0.00 38 1016.5
20260506211803 60 276 6.0 11.0 0.00 0.01 0.00 39 1016.5
20260506210903 62 282 8.0 13.0 0.00 0.01 0.00 35 1016.6
20260506210003 62 281 7.0 16.0 0.00 0.01 0.00 36 1016.7
20260506205403 62 270 4.0 12.0 0.00 0.01 0.00 36 1016.7
20260506204503 62 41 2.0 5.0 0.00 0.01 0.00 38 1016.9
20260506203603 61 4 3.0 7.0 0.00 0.01 0.00 36 1017.1
20260506202703 60 246 3.0 7.0 0.00 0.01 0.00 35 1017.2
20260506201803 61 240 5.0 9.0 0.00 0.01 0.00 34 1017.4
20260506200903 61 217 5.0 10.0 0.00 0.01 0.00 35 1017.5
20260506200003 60 207 5.0 8.0 0.00 0.01 0.00 38 1017.6
20260506195614 60 204 6.0 10.0 0.00 0.01 0.00 37 1017.7
20260506194503 59 252 5.0 8.0 0.00 0.01 0.00 37 1017.8
20260506193603 61 228 6.0 12.0 0.00 0.01 0.00 34 1017.8
20260506192916 60 243 7.0 15.0 0.00 0.01 0.00 37 1017.7
20260506191803 60 241 3.0 7.0 0.00 0.01 0.00 38 1017.8
20260506190903 60 295 2.0 9.0 0.00 0.01 0.00 37 1017.8
20260506190004 60 274 6.0 12.0 0.00 0.01 0.00 39 1017.8
20260506185403 59 264 6.0 11.0 0.00 0.01 0.00 40 1017.8
20260506184503 58 306 6.0 12.0 0.00 0.01 0.00 38 1017.9
20260506183814 59 315 6.0 12.0 0.00 0.01 0.00 38 1017.9
20260506182703 58 7 3.0 10.0 0.00 0.01 0.00 42 1017.8
20260506181803 57 152 2.0 7.0 0.00 0.01 0.00 44 1017.9
20260506180903 57 221 5.0 12.0 0.00 0.01 0.00 41 1018.0
20260506180213 57 52 4.0 11.0 0.00 0.01 0.00 43 1018.1
20260506175615 56 23 7.0 12.0 0.00 0.01 0.00 40 1018.1
20260506174503 56 292 3.0 10.0 0.00 0.01 0.00 43 1018.2
20260506173815 57 22 1.0 4.0 0.00 0.01 0.00 46 1018.2
20260506172917 56 322 7.0 14.0 0.00 0.01 0.00 43 1018.4
20260506171803 56 284 3.0 9.0 0.00 0.01 0.00 45 1018.5
20260506171117 56 272 5.0 10.0 0.00 0.01 0.00 47 1018.6
20260506170214 56 325 4.0 11.0 0.00 0.01 0.00 47 1018.6
20260506165404 56 188 5.0 10.0 0.00 0.01 0.00 50 1018.7
20260506164504 56 173 4.0 10.0 0.00 0.01 0.00 51 1018.8
20260506163603 55 267 4.0 8.0 0.00 0.01 0.00 54 1018.7
20260506162912 55 261 3.0 8.0 0.00 0.01 0.00 53 1018.8
20260506162015 54 241 3.0 9.0 0.00 0.01 0.00 58 1018.8
20260506160903 54 280 4.0 8.0 0.00 0.01 0.00 61 1018.7
20260506160214 53 288 4.0 9.0 0.00 0.01 0.00 65 1018.7
20260506155404 52 252 4.0 9.0 0.00 0.01 0.00 67 1018.8
20260506154503 52 229 2.0 6.0 0.00 0.01 0.00 69 1018.6
20260506153603 51 212 3.0 7.0 0.00 0.01 0.00 69 1018.6
20260506152703 51 220 3.0 6.0 0.00 0.01 0.00 71 1018.6
20260506151803 50 222 4.0 8.0 0.00 0.01 0.00 70 1018.8
20260506150903 50 241 3.0 6.0 0.00 0.01 0.00 72 1018.8
20260506150215 50 265 4.0 8.0 0.00 0.01 0.00 72 1018.8
20260506145617 50 255 4.0 8.0 0.00 0.01 0.00 72 1018.9
20260506144503 50 247 4.0 11.0 0.00 0.01 0.00 74 1018.6
20260506143603 49 268 4.0 8.0 0.00 0.01 0.00 75 1018.5
20260506142914 49 263 2.0 6.0 0.00 0.01 0.00 76 1018.5
20260506141803 48 280 3.0 7.0 0.00 0.01 0.00 77 1018.3
20260506140903 48 293 4.0 7.0 0.00 0.01 0.00 77 1018.2
20260506140216 47 305 3.0 6.0 0.00 0.01 0.00 78 1018.2
20260506135403 47 314 4.0 6.0 0.00 0.01 0.00 79 1018.3
20260506134503 47 315 4.0 6.0 0.00 0.01 0.00 79 1018.3
20260506133817 46 317 4.0 5.0 0.00 0.01 0.00 79 1018.3
20260506132914 46 318 5.0 6.0 0.00 0.01 0.00 79 1018.3
20260506131803 46 317 5.0 8.0 0.00 0.01 0.00 80 1018.1
20260506131114 46 317 5.0 7.0 0.00 0.01 0.00 80 1018.0
20260506130003 46 134 2.0 4.0 0.00 0.01 0.00 81 1017.6
20260506125403 46 134 0.0 2.0 0.00 0.01 0.00 81 1017.5
20260506124503 46 134 0.0 2.0 0.00 0.01 0.00 79 1017.4
20260506123813 46 134 0.0 2.0 0.00 0.01 0.00 79 1017.3
20260506122703 46 134 0.0 1.0 0.00 0.01 0.00 79 1017.0
20260506121803 46 134 0.0 1.0 0.00 0.01 0.00 77 1016.9
20260506121115 46 134 0.0 1.0 0.00 0.01 0.00 77 1016.4
20260506120217 46 134 0.0 2.0 0.00 0.01 0.00 76 1016.3
20260506115614 45 134 1.0 3.0 0.00 0.01 0.00 75 1016.3
20260506114716 45 134 2.0 3.0 0.00 0.01 0.00 75 1016.1
20260506113603 45 134 2.0 3.0 0.00 0.01 0.00 75 1015.7
20260506112916 46 134 2.0 3.0 0.00 0.01 0.00 75 1015.8
20260506112013 46 134 3.0 4.0 0.00 0.01 0.00 75 1015.6
20260506110903 46 134 2.0 4.0 0.00 0.01 0.00 74 1015.6
20260506110213 46 134 1.0 3.0 0.00 0.01 0.00 73 1015.4
20260506105614 46 134 2.0 3.0 0.00 0.01 0.00 73 1015.4
20260506104503 46 133 3.0 4.0 0.00 0.01 0.00 73 1015.6
20260506103603 46 132 2.0 3.0 0.00 0.01 0.00 73 1015.3
20260506102916 46 132 1.0 2.0 0.00 0.01 0.00 74 1015.3
20260506101803 46 132 3.0 5.0 0.00 0.01 0.00 72 1015.3